{"data":{"norad_id":67955,"intl_designator":"2026-037Z","name":"STARLINK-36872","alt_names":[],"object_type":"PAYLOAD","status":"ACTIVE","operator":null,"country":"US","launch_date":"2026-02-24","launch_site_code":"AFETR","launch_vehicle":null,"mission":null,"orbit_class":"UNKNOWN","rcs_meters":null,"size_class":null,"mass_kg":null,"dimensions":null,"purposes":["comms"],"wikipedia_slug":null,"has_3d_model":false,"image_url":null,"decayed_at":null,"tle_current":{"epoch":"2026-05-25T05:03:53.424000Z","epoch_age_seconds":50646,"freshness":"FRESH","line1":"1 67955U 26037Z   26145.21103500  .00026557  00000+0  97054-3 0  9992","line2":"2 67955  42.9984 118.5620 0000800 259.7864 100.2897 15.27599463 15040","mean_motion":15.27599463,"eccentricity":8.0e-5,"inclination_deg":42.9984,"raan_deg":118.562,"arg_perigee_deg":259.7864,"mean_anomaly_deg":100.2897,"bstar":0.00097054,"rev_number":1504,"period_min":94.265547669939,"perigee_km":482.44192720926,"apogee_km":483.53970766005,"semimajor_km":6861.1278174347,"source":"CELESTRAK","updated_at":"2026-05-25T13:38:21.771158Z"}}}